Quillayute, WA
on Friday, November 9, 2012

Friday
Previous Day Next Day
Daily Summary
 ActualAverageRecord
Temperature
Mean Temperature °F 45°F  
Max Temperature 51°F 52°F 64°F (1976)
Min Temperature 28°F 39°F 26°F (1982)
Degree Days
Heating Degree Days 25 20  
Month to date heating degree days 170  
Since 1 July heating degree days 1260  
Cooling Degree Days 0 0  
Month to date cooling degree days 0  
Year to date cooling degree days 19  
Moisture
Dew Point 30°F   
Average Humidity 79    
Maximum Humidity 93    
Minimum Humidity 43    
Precipitation
Precipitation 0.00 in 0.51 in 3.12 in (1999)
Month to date precipitation 4.41  
Year to date precipitation 75.44  
Wind
Wind Speed 3 mph   
Max Wind Speed 10 mph   
Max Gust Speed 12 mph   
Visibility 6 miles   
Events     

Key: T is trace of precipitation, MM is missing value
Source: NWS Daily Summary
Time(PST)TemperatureDew PointHumidity Pressure Visibility Wind DirectionWind SpeedGust SpeedPrecipitationEvents Conditions
12:53 AM 32.0°F 28.9°F 88% 29.86 in 7.0 miles Calm Calm - N/A   Clear
1:53 AM 30.0°F 28.0°F 92% 29.87 in 6.0 miles Calm Calm - N/A   Clear
2:13 AM 30.2°F 26.6°F 86% 29.87 in 1.5 miles Calm Calm - N/A   Clear
2:23 AM 30.2°F 28.4°F 93% 29.87 in 3.0 miles Calm Calm - N/A   Clear
2:53 AM 30.9°F 28.0°F 89% 29.87 in 6.0 miles NE 3.5 mph - N/A   Clear
3:53 AM 30.9°F 28.0°F 89% 29.86 in 7.0 miles Calm Calm - N/A   Clear
4:53 AM 30.9°F 28.9°F 92% 29.86 in 7.0 miles Calm Calm - N/A   Overcast
5:53 AM 30.9°F 28.0°F 89% 29.86 in 7.0 miles ENE 6.9 mph - N/A   Clear
6:53 AM 32.0°F 28.9°F 88% 29.86 in 8.0 miles East 5.8 mph - N/A   Mostly Cloudy
7:53 AM 33.1°F 28.9°F 85% 29.88 in 6.0 miles East 6.9 mph - N/A   Mostly Cloudy
8:53 AM 35.1°F 30.9°F 85% 29.89 in 6.0 miles East 3.5 mph - N/A   Partly Cloudy
9:53 AM 39.0°F 33.1°F 79% 29.89 in 7.0 miles ESE 3.5 mph - N/A   Clear
10:53 AM 45.0°F 36.0°F 71% 29.89 in 7.0 miles East 4.6 mph - N/A   Mostly Cloudy
11:53 AM 48.0°F 33.1°F 56% 29.89 in 7.0 miles East 6.9 mph - N/A   Scattered Clouds
12:53 PM 50.0°F 30.9°F 48% 29.88 in 7.0 miles Calm Calm - N/A   Clear
1:53 PM 51.1°F 28.9°F 43% 29.87 in 7.0 miles Calm Calm - N/A   Clear
2:53 PM 48.0°F 35.1°F 61% 29.87 in 6.0 miles West 4.6 mph - N/A   Haze
3:53 PM 46.9°F 35.1°F 63% 29.88 in 5.0 miles NNW 3.5 mph - N/A   Haze
4:53 PM 39.9°F 34.0°F 79% 29.89 in 5.0 miles Calm Calm - N/A   Haze
5:53 PM 37.0°F 30.9°F 79% 29.91 in 7.0 miles Calm Calm - N/A   Clear
6:53 PM 35.1°F 32.0°F 89% 29.91 in 7.0 miles Calm Calm - N/A   Clear
7:53 PM 32.0°F 28.9°F 88% 29.92 in 7.0 miles NNE 3.5 mph - N/A   Clear
8:53 PM 30.9°F 28.0°F 89% 29.93 in 7.0 miles Calm Calm - N/A   Clear
9:53 PM 30.9°F 27.0°F 85% 29.94 in 7.0 miles ENE 3.5 mph - N/A   Clear
10:53 PM 28.9°F 26.1°F 89% 29.94 in 7.0 miles Calm Calm - N/A   Clear
11:53 PM 28.9°F 26.1°F 89% 29.96 in 7.0 miles NE 4.6 mph - N/A   Partly Cloudy
Moon Phase
Nov. 09 Nov. 13 Nov. 20 Nov. 28 Dec. 06
Sunrise:07:16 AM (PST) Moon Rise:02:01 AM (PST)11/9
Sunset:04:47 PM (PST) Moon Set:02:20 PM (PST)11/9

Copyright © 2014 The Weather Underground, Inc.